Retour au catalogue

STARLINK-4179

ActifCommunicationsVLEO
NORAD 53275·PAYLOAD·🇺🇸 United States

Lancé Jul 24, 2022 depuis Cape Canaveral Space Force Station

Loading…

Prochains Passages (prochaines 24 heures)

TLE

FraisSource: CelesTrak SupGP

Époque: Sep 14, 2026, 14:40 UTC

1 53275C 22086AK  26257.61159722 -.00038858  00000+0 -11119-2 0  2570
2 53275  53.1586  41.6041 0001189  90.6391 158.1888 15.35412894    17

Suivez STARLINK-4179 en temps réel avec AllMySat

Download on the App Store